QPF
0.00 0.00 0.00 0.00 0.00 0.00 0.00 0.00 0.00 0.00 0.00 0.00 0.00 0.00 0.00 0.00 0.00 0.00 0.00 0.00 0.00 0.00 0.00 0.00 0.00 0.00 0.00 0.00 0.00 0.00 0.00 0.00 0.00 0.00 0.00 0.00 0.00 0.00 0.00 0.00 0.00 0.00 0.00 0.00 0.00 0.00 0.00 0.00 0.00
0.00 0.00 0.00 0.00 0.00 0.00 0.00 0.00 0.00 0.00 0.00 0.00 0.00 0.00 0.00 0.00 0.00 0.00 0.00 0.00 0.00 0.00 0.00 0.00 0.00 0.00 0.00 0.00 0.00 0.00 0.00 0.00 0.00 0.00 0.00 0.00 0.00 0.00 0.00 0.00 0.00 0.00 0.00 0.00 0.00 0.00 0.00 0.00 0.00
0.00 0.00 0.00 0.00 0.00 0.00 0.00 0.00 0.00 0.00 0.00 0.00 0.00 0.00 0.00 0.00 0.00 0.00 0.00 0.00 0.00 0.00 0.00 0.00 0.00 0.00 0.00 0.00 0.00 0.00 0.00 0.00 0.00 0.00 0.00 0.00 0.00 0.00 0.00 0.00 0.00 0.00 0.00 0.00 0.00 0.00 0.00 0.00 0.00
0.00 0.00 0.00 0.00 0.00 0.00 0.00 0.00 0.00 0.00 0.00 0.00 0.00 0.00 0.00 0.00 0.00 0.00 0.00 0.00 0.00 0.00 0.00 0.00 0.01 0.00 0.00 0.00 0.00 0.00 0.00 0.00 0.00 0.00 0.00 0.00 0.00 0.00 0.00 0.00 0.00 0.00 0.00 0.00 0.00 0.01 0.00 0.00 0.00
0.00 0.00 0.00 0.00 0.00 0.00 0.00 0.00 0.00 0.00 0.00 0.00 0.00 0.00 0.00 0.00 0.00 0.00 0.00 0.00 0.00 0.00 0.00 0.00 0.00 0.00 0.00 0.00 0.00 0.00 0.00 0.00 0.00 0.00 0.00 0.00 0.00 0.00 0.00 0.00 0.00 0.00 0.00 0.00 0.00 0.00 0.01 0.01 0.01
0.00 0.00 0.00 0.00 0.00 0.00 0.00 0.00 0.00 0.00 0.00 0.00 0.00 0.00 0.00 0.00 0.00 0.00 0.00 0.00 0.01 0.00 0.00 0.00 0.00 0.00 0.00 0.00 0.00 0.00 0.00 0.00 0.00 0.00 0.00 0.00 0.00 0.00 0.00 0.00 0.00 0.00 0.00 0.00 0.00 0.00 0.00 0.00 0.00
0.00 0.00 0.00 0.00 0.00 0.00 0.00 0.00 0.00 0.00 0.00 0.00 0.00 0.00 0.00 0.00 0.01 0.00 0.00 0.00 0.00 0.00 0.00 0.00 0.00 0.00 0.00 0.00 0.00 0.00 0.00 0.00 0.00 0.00 0.00 0.00 0.00 0.00 0.00 0.00 0.00 0.00 0.00 0.00 0.00 0.00 0.00 0.00 0.00
0.00 0.00 0.00 0.00 0.00 0.00 0.00 0.00 0.00 0.00 0.00 0.00 0.00 0.00 0.00 0.00 0.00 0.00 0.00 0.00 0.00 0.00 0.00 0.00 0.00 0.00 0.00 0.00 0.00 0.00 0.00 0.00 0.00 0.00 0.00 0.00 0.00 0.00 0.00 0.00 0.00 0.00 0.00 0.00 0.00 0.00 0.00 0.00 0.00
0.00 0.00 0.00 0.00 0.00 0.00 0.00 0.00 0.00 0.00 0.00 0.00 0.00 0.00 0.00 0.00 0.00 0.00 0.00 0.00 0.00 0.00 0.00 0.00 0.00 0.00 0.00 0.00 0.00 0.00 0.00 0.00 0.00 0.00 0.00 0.00 0.00 0.00 0.00 0.00 0.00 0.00 0.00 0.00 0.00 0.00 0.00 0.00 0.00
0.00 0.00 0.00 0.00 0.00 0.00 0.00 0.00 0.00 0.00 0.00 0.00 0.00 0.00 0.00 0.00 0.00 0.00 0.00 0.00 0.00 0.00 0.00 0.00 0.00 0.00 0.00 0.00 0.00 0.00 0.00 0.00 0.00 0.00 0.00 0.00 0.00 0.00 0.00 0.00 0.00 0.00 0.00 0.00 0.00 0.00 0.00 0.00 0.00
0.00 0.00 0.00 0.00 0.00 0.00 0.00 0.00 0.00 0.00 0.00 0.00 0.00 0.00 0.00 0.00 0.00 0.00 0.00 0.00 0.00 0.00 0.00 0.00 0.00 0.00 0.00 0.00 0.00 0.00 0.00 0.00 0.00 0.00 0.00 0.00 0.00 0.00 0.00 0.00 0.00 0.00 0.00 0.00 0.00 0.00 0.00 0.00 0.00
0.00 0.00 0.00 0.00 0.00 0.00 0.00 0.00 0.00 0.00 0.00 0.00 0.00 0.00 0.00 0.00 0.00 0.00 0.00 0.00 0.00 0.00 0.00 0.00 0.00 0.00 0.00 0.00 0.00 0.00 0.00 0.00 0.00 0.00 0.00 0.00 0.00 0.00 0.00 0.00 0.00 0.00 0.00 0.00 0.00 0.00 0.00 0.00 0.00
0.00 0.00 0.00 0.00 0.00 0.00 0.00 0.00 0.00 0.00 0.00 0.00 0.00 0.00 0.00 0.00 0.00 0.00 0.00 0.00 0.00 0.00 0.00 0.00 0.00 0.00 0.00 0.00 0.00 0.00 0.00 0.00 0.00 0.00 0.00 0.00 0.00 0.00 0.00 0.00 0.00 0.00 0.00 0.00 0.00 0.00 0.00 0.00 0.00
0.00 0.00 0.00 0.00 0.00 0.00 0.00 0.00 0.00 0.00 0.00 0.00 0.00 0.00 0.00 0.00 0.00 0.00 0.00 0.00 0.00 0.00 0.00 0.00 0.00 0.00 0.00 0.00 0.00 0.00 0.00 0.00 0.00 0.00 0.00 0.00 0.00 0.00 0.00 0.00 0.00 0.00 0.00 0.00 0.00 0.00 0.00 0.00 0.00
0.00 0.00 0.00 0.00 0.00 0.00 0.00 0.00 0.00 0.00 0.00 0.00 0.00 0.00 0.00 0.00 0.00 0.00 0.00 0.00 0.00 0.00 0.00 0.00 0.00 0.00 0.00 0.00 0.00 0.00 0.00 0.00 0.00 0.00 0.00 0.00 0.00 0.00 0.00 0.00 0.00 0.00 0.00 0.00 0.00 0.00 0.00 0.00 0.00
0.00 0.00 0.00 0.00 0.00 0.00 0.00 0.00 0.00 0.00 0.00 0.00 0.00 0.00 0.00 0.00 0.00 0.00 0.00 0.00 0.00 0.00 0.00 0.00 0.00 0.00 0.00 0.00 0.00 0.00 0.00 0.00 0.00 0.00 0.00 0.00 0.00 0.00 0.00 0.00 0.00 0.00 0.00 0.00 0.00 0.00 0.00 0.00 0.00
0.00 0.00 0.00 0.00 0.00 0.00 0.00 0.00 0.00 0.00 0.00 0.00 0.00 0.00 0.00 0.00 0.00 0.00 0.00 0.00 0.00 0.00 0.00 0.00 0.00 0.00 0.00 0.00 0.00 0.00 0.00 0.00 0.00 0.00 0.00 0.00 0.00 0.00 0.00 0.00 0.00 0.00 0.00 0.00 0.00 0.00 0.00 0.00 0.00
0.00 0.00 0.00 0.00 0.00 0.00 0.00 0.00 0.00 0.00 0.00 0.00 0.00 0.00 0.00 0.00 0.00 0.00 0.00 0.00 0.00 0.00 0.00 0.00 0.00 0.00 0.00 0.00 0.00 0.00 0.00 0.00 0.00 0.00 0.00 0.00 0.00 0.00 0.00 0.00 0.00 0.00 0.00 0.00 0.00 0.00 0.00 0.00 0.00
0.00 0.00 0.00 0.00 0.00 0.00 0.00 0.00 0.00 0.00 0.00 0.00 0.00 0.00 0.00 0.00 0.00 0.00 0.00 0.00 0.00 0.00 0.00 0.00 0.00 0.00 0.00 0.00 0.00 0.00 0.00 0.00 0.00 0.00 0.00 0.00 0.00 0.00 0.00 0.00 0.00 0.00 0.00 0.00 0.00 0.00 0.00 0.00 0.00
0.00 0.00 0.00 0.00 0.00 0.00 0.00 0.00 0.00 0.00 0.00 0.00 0.00 0.00 0.00 0.00 0.00 0.00 0.00 0.00 0.00 0.00 0.00 0.00 0.00 0.00 0.00 0.00 0.00 0.00 0.00 0.00 0.00 0.00 0.00 0.00 0.00 0.00 0.00 0.00 0.00 0.00 0.00 0.00 0.00 0.00 0.00 0.00 0.00
0.00 0.00 0.00 0.00 0.00 0.00 0.00 0.00 0.00 0.00 0.00 0.00 0.00 0.00 0.00 0.00 0.00 0.00 0.00 0.00 0.00 0.00 0.00 0.00 0.00 0.00 0.00 0.00 0.00 0.00 0.00 0.00 0.00 0.00 0.00 0.00 0.00 0.00 0.00 0.00 0.00 0.00 0.00 0.00 0.00 0.00 0.00 0.00 0.00
0.00 0.00 0.00 0.00 0.00 0.00 0.00 0.00 0.00 0.00 0.00 0.00 0.00 0.00 0.00 0.00 0.00 0.00 0.00 0.00 0.00 0.00 0.00 0.00 0.00 0.00 0.00 0.00 0.00 0.00 0.00 0.00 0.00 0.00 0.00 0.00 0.00 0.00 0.00 0.00 0.00 0.00 0.00 0.00 0.00 0.00 0.00 0.00 0.00
0.00 0.00 0.00 0.00 0.00 0.00 0.00 0.00 0.00 0.00 0.00 0.00 0.00 0.00 0.00 0.00 0.00 0.00 0.00 0.00 0.00 0.00 0.00 0.00 0.00 0.00 0.00 0.00 0.00 0.00 0.00 0.00 0.00 0.00 0.00 0.00 0.00 0.00 0.00 0.00 0.00 0.00 0.00 0.00 0.00 0.00 0.00 0.00 0.00
0.00 0.00 0.00 0.00 0.00 0.00 0.00 0.00 0.00 0.00 0.00 0.00 0.00 0.00 0.00 0.00 0.00 0.00 0.00 0.00 0.00 0.00 0.00 0.00 0.00 0.00 0.00 0.00 0.00 0.00 0.00 0.00 0.00 0.00 0.00 0.00 0.00 0.00 0.00 0.00 0.00 0.00 0.00 0.00 0.00 0.00 0.00 0.00 0.00
0.00 0.00 0.00 0.00 0.00 0.00 0.00 0.00 0.00 0.00 0.00 0.00 0.00 0.00 0.00 0.00 0.00 0.00 0.00 0.00 0.00 0.00 0.00 0.00 0.00 0.00 0.00 0.00 0.00 0.00 0.00 0.00 0.00 0.00 0.00 0.00 0.00 0.00 0.00 0.00 0.00 0.00 0.00 0.00 0.00 0.00 0.00 0.00 0.00
0.00 0.00 0.00 0.00 0.00 0.00 0.00 0.00 0.00 0.00 0.00 0.00 0.00 0.00 0.00 0.00 0.00 0.00 0.00 0.00 0.00 0.00 0.00 0.00 0.00 0.00 0.00 0.00 0.00 0.00 0.00 0.00 0.00 0.00 0.00 0.00 0.00 0.00 0.00 0.00 0.00 0.00 0.00 0.00 0.00 0.00 0.00 0.00 0.00
0.00 0.00 0.00 0.00 0.00 0.00 0.00 0.00 0.00 0.00 0.00 0.00 0.00 0.00 0.00 0.00 0.00 0.00 0.00 0.00 0.00 0.00 0.00 0.00 0.00 0.00 0.00 0.00 0.00 0.00 0.00 0.00 0.00 0.00 0.00 0.00 0.00 0.00 0.00 0.00 0.00 0.00 0.00 0.00 0.00 0.00 0.00 0.00 0.00
0.00 0.00 0.00 0.00 0.00 0.00 0.00 0.00 0.00 0.00 0.00 0.00 0.00 0.00 0.00 0.00 0.00 0.00 0.00 0.00 0.00 0.00 0.00 0.00 0.00 0.00 0.00 0.00 0.00 0.00 0.00 0.00 0.00 0.00 0.00 0.00 0.00 0.00 0.00 0.00 0.00 0.00 0.00 0.00 0.00 0.00 0.00 0.00 0.00
0.00 0.00 0.00 0.00 0.00 0.00 0.00 0.00 0.00 0.00 0.00 0.00 0.00 0.00 0.00 0.00 0.00 0.00 0.00 0.00 0.00 0.00 0.00 0.00 0.00 0.00 0.00 0.00 0.00 0.00 0.00 0.00 0.00 0.00 0.00 0.00 0.00 0.00 0.00 0.00 0.00 0.00 0.00 0.00 0.00 0.00 0.00 0.00 0.00
0.00 0.00 0.00 0.00 0.00 0.00 0.00 0.00 0.00 0.00 0.00 0.00 0.00 0.00 0.00 0.00 0.00 0.00 0.00 0.00 0.00 0.00 0.00 0.00 0.00 0.00 0.00 0.00 0.00 0.00 0.00 0.00 0.00 0.00 0.00 0.00 0.00 0.00 0.00 0.00 0.00 0.00 0.00 0.00 0.00 0.00 0.00 0.00 0.00
MSLP
1014.89 1014.69 1014.96 1014.95 1015.59 1015.28 1014.16 1012.75 1011.50 1011.25 1011.55 1011.82 1011.77 1012.34 1014.29 1014.98 1015.52 1016.87 1017.16 1017.24 1017.85 1018.56 1018.89 1019.11 1019.27 1019.37 1019.52 1019.68 1019.72 1019.75 1019.77 1019.73 1019.63 1019.54 1019.43 1019.36 1019.37 1019.33 1019.24 1019.17 1019.14 1019.07 1019.02 1018.97 1018.93 1018.89 1018.88 1018.88 1018.84
1014.93 1014.67 1014.93 1015.34 1015.75 1015.34 1013.98 1012.44 1011.95 1011.65 1011.81 1011.95 1012.58 1013.48 1014.39 1015.84 1015.68 1016.45 1017.13 1017.36 1017.67 1018.32 1018.86 1019.19 1019.38 1019.48 1019.61 1019.71 1019.76 1019.79 1019.79 1019.77 1019.74 1019.72 1019.62 1019.55 1019.48 1019.43 1019.37 1019.24 1019.08 1019.08 1019.05 1019.01 1018.99 1018.94 1018.91 1018.85 1018.80
1015.08 1014.98 1015.55 1015.62 1015.61 1014.95 1013.55 1012.59 1012.22 1012.12 1011.91 1012.03 1013.43 1014.25 1015.14 1016.25 1016.11 1016.29 1016.89 1017.26 1017.53 1018.37 1018.86 1019.18 1019.39 1019.53 1019.66 1019.75 1019.78 1019.85 1019.84 1019.80 1019.82 1019.84 1019.76 1019.67 1019.62 1019.52 1019.45 1019.43 1019.35 1019.24 1019.12 1019.00 1018.90 1018.82 1018.76 1018.69 1018.65
1015.23 1015.16 1015.70 1015.67 1015.28 1014.02 1013.13 1012.89 1012.31 1012.34 1012.42 1012.58 1013.71 1015.30 1015.94 1016.33 1016.17 1016.37 1017.01 1017.27 1017.69 1018.51 1018.97 1019.25 1019.47 1019.61 1019.80 1019.91 1019.93 1020.02 1020.10 1020.09 1020.06 1020.04 1020.01 1019.92 1019.81 1019.76 1019.69 1019.64 1019.55 1019.43 1019.27 1019.02 1018.81 1018.66 1018.57 1018.51 1018.45
1015.34 1015.51 1015.86 1015.71 1014.77 1013.54 1012.84 1012.36 1012.20 1012.65 1012.98 1013.46 1013.82 1015.94 1016.67 1016.57 1016.49 1016.96 1017.28 1017.40 1018.09 1018.72 1019.11 1019.41 1019.67 1019.83 1020.01 1020.20 1020.25 1020.29 1020.32 1020.27 1020.29 1020.27 1020.19 1020.11 1020.04 1019.96 1019.89 1019.80 1019.74 1019.62 1019.46 1019.27 1019.06 1018.84 1018.61 1018.42 1018.26
1015.61 1015.43 1015.66 1015.50 1014.43 1013.17 1012.53 1012.10 1012.10 1012.64 1013.25 1013.95 1014.93 1015.97 1017.07 1016.89 1016.97 1017.33 1017.57 1017.85 1018.31 1018.85 1019.30 1019.66 1020.01 1020.15 1020.27 1020.40 1020.52 1020.58 1020.59 1020.51 1020.48 1020.45 1020.34 1020.21 1020.11 1020.00 1019.94 1019.84 1019.81 1019.73 1019.61 1019.42 1019.18 1018.96 1018.74 1018.53 1018.35
1015.44 1015.50 1015.24 1014.81 1014.04 1013.03 1012.61 1012.09 1012.19 1012.77 1013.41 1014.12 1014.76 1016.56 1017.45 1017.32 1017.55 1017.65 1017.91 1018.00 1018.47 1019.12 1019.56 1020.01 1020.34 1020.51 1020.61 1020.71 1020.76 1020.76 1020.76 1020.72 1020.64 1020.57 1020.46 1020.28 1020.18 1020.06 1020.01 1019.94 1019.87 1019.72 1019.58 1019.45 1019.26 1019.02 1018.79 1018.58 1018.35
1015.14 1015.21 1014.99 1014.26 1013.55 1012.77 1012.33 1012.09 1012.25 1012.62 1013.56 1014.04 1015.04 1016.44 1017.47 1017.61 1017.71 1018.09 1018.48 1018.76 1019.15 1019.46 1019.83 1020.27 1020.50 1020.67 1020.85 1020.87 1020.89 1020.90 1020.86 1020.84 1020.74 1020.63 1020.48 1020.35 1020.18 1020.07 1020.04 1019.87 1019.79 1019.65 1019.56 1019.39 1019.17 1018.95 1018.71 1018.47 1018.25
1014.67 1015.01 1014.68 1013.86 1013.05 1012.45 1012.11 1012.14 1012.73 1013.02 1013.76 1015.14 1015.89 1015.72 1016.12 1017.43 1017.83 1018.49 1019.16 1019.56 1019.69 1019.83 1020.08 1020.33 1020.36 1020.55 1020.78 1020.91 1020.89 1020.94 1020.90 1020.81 1020.78 1020.74 1020.56 1020.48 1020.37 1020.28 1020.02 1019.88 1019.70 1019.58 1019.43 1019.23 1019.06 1018.79 1018.61 1018.34 1018.16
1014.97 1014.81 1013.98 1012.83 1012.13 1011.95 1011.96 1011.79 1012.61 1013.55 1014.60 1016.18 1016.73 1016.94 1017.17 1017.59 1018.04 1018.94 1019.58 1020.13 1020.23 1020.34 1020.44 1020.56 1020.55 1020.66 1020.74 1020.75 1021.04 1021.07 1021.05 1020.98 1021.01 1020.89 1020.81 1020.70 1020.56 1020.52 1020.26 1020.07 1019.81 1019.62 1019.42 1019.22 1019.08 1018.84 1018.63 1018.48 1018.39
1014.82 1014.34 1013.39 1012.37 1011.85 1011.55 1011.85 1012.20 1012.45 1013.52 1014.93 1015.52 1016.57 1017.35 1017.77 1018.13 1018.48 1019.13 1019.79 1020.11 1020.31 1020.50 1020.62 1020.69 1020.73 1020.90 1020.93 1021.12 1021.28 1021.24 1021.26 1021.19 1021.21 1021.08 1021.00 1020.95 1020.86 1020.82 1020.63 1020.44 1020.17 1019.90 1019.56 1019.45 1019.22 1019.10 1018.90 1018.72 1018.53
1014.98 1013.82 1013.43 1012.52 1011.98 1011.77 1012.13 1012.41 1013.15 1013.84 1014.54 1014.71 1015.99 1016.93 1017.78 1018.36 1018.77 1019.23 1019.81 1020.26 1020.45 1020.64 1020.80 1020.85 1020.93 1021.09 1021.10 1021.29 1021.39 1021.32 1021.39 1021.35 1021.36 1021.33 1021.18 1021.04 1021.30 1021.13 1021.00 1020.78 1020.45 1020.15 1019.86 1019.69 1019.49 1019.28 1018.94 1018.70 1018.38
1015.11 1014.15 1013.22 1012.51 1012.13 1011.88 1012.18 1013.13 1013.87 1014.52 1014.57 1015.20 1016.36 1017.28 1017.95 1018.44 1018.88 1019.26 1019.61 1020.08 1020.33 1020.66 1020.89 1020.99 1021.03 1021.23 1021.21 1021.24 1021.55 1021.45 1021.53 1021.62 1021.53 1021.43 1021.31 1021.27 1021.37 1021.33 1021.17 1020.92 1020.59 1020.31 1020.09 1019.85 1019.61 1019.31 1019.01 1018.75 1018.38
1014.49 1014.37 1013.46 1012.94 1012.52 1012.37 1012.93 1013.82 1013.57 1015.09 1015.22 1015.98 1016.62 1017.36 1017.84 1018.22 1018.62 1019.23 1019.72 1020.08 1020.27 1020.65 1020.93 1020.99 1021.08 1021.21 1021.19 1021.44 1021.48 1021.60 1021.65 1021.61 1021.60 1021.60 1021.43 1021.29 1021.26 1021.37 1021.20 1021.08 1020.77 1020.52 1020.22 1019.89 1019.63 1019.42 1019.14 1018.84 1018.45
1014.58 1014.63 1013.92 1013.62 1013.19 1013.39 1013.21 1014.50 1014.91 1015.31 1015.61 1016.38 1016.94 1017.40 1017.80 1018.06 1018.40 1019.04 1019.49 1019.84 1020.16 1020.56 1020.79 1020.90 1020.97 1021.24 1021.22 1021.44 1021.53 1021.70 1021.65 1021.67 1021.74 1021.67 1021.35 1021.34 1021.31 1021.29 1021.30 1021.17 1020.96 1020.62 1020.20 1019.93 1019.72 1019.46 1019.18 1018.95 1018.48
1014.92 1014.68 1014.56 1014.14 1013.79 1014.06 1013.86 1015.37 1015.61 1015.70 1016.01 1016.76 1017.11 1017.49 1017.70 1017.98 1018.31 1018.78 1019.21 1019.62 1020.06 1020.45 1020.74 1020.88 1020.76 1021.14 1021.32 1021.63 1021.62 1021.55 1021.73 1021.76 1021.70 1021.55 1021.53 1021.45 1021.31 1021.28 1021.27 1021.19 1020.98 1020.58 1020.25 1020.03 1019.89 1019.65 1019.35 1019.09 1018.75
1015.21 1015.16 1014.90 1014.61 1014.22 1014.37 1014.60 1015.87 1015.96 1015.96 1016.29 1016.93 1017.31 1017.64 1017.77 1018.01 1018.28 1018.61 1019.04 1019.47 1019.96 1020.29 1020.61 1020.85 1021.09 1021.25 1021.49 1021.53 1021.49 1021.64 1021.54 1021.71 1021.68 1021.56 1021.56 1021.46 1021.33 1021.27 1021.28 1021.20 1020.97 1020.59 1020.34 1020.13 1020.02 1019.77 1019.65 1019.43 1019.02
1015.40 1015.46 1015.44 1015.14 1015.03 1014.95 1015.64 1016.35 1016.36 1016.23 1016.51 1016.96 1017.34 1017.64 1017.91 1018.04 1018.42 1018.71 1019.11 1019.48 1019.78 1020.20 1020.51 1020.78 1021.10 1021.27 1021.44 1021.48 1021.69 1021.75 1021.83 1021.80 1021.62 1021.61 1021.49 1021.36 1021.33 1021.26 1021.29 1021.14 1020.94 1020.63 1020.47 1020.31 1020.12 1019.98 1019.69 1019.50 1019.21
1015.04 1015.65 1015.95 1015.83 1015.39 1015.62 1016.30 1016.78 1016.72 1016.50 1016.64 1017.03 1017.55 1017.67 1017.97 1018.10 1018.14 1018.57 1019.01 1019.43 1019.93 1020.29 1020.69 1020.83 1021.14 1021.21 1021.46 1021.73 1021.97 1021.99 1022.11 1021.92 1021.73 1021.51 1021.33 1021.24 1021.23 1021.19 1021.19 1021.14 1021.01 1020.80 1020.70 1020.45 1020.26 1019.93 1019.78 1019.63 1019.24
1015.28 1015.94 1016.45 1016.43 1016.09 1016.25 1017.12 1017.53 1017.36 1017.02 1016.96 1016.96 1017.44 1017.79 1017.91 1018.22 1018.54 1018.93 1019.20 1019.43 1019.73 1020.20 1020.54 1020.79 1020.99 1021.18 1021.43 1021.56 1021.67 1021.79 1021.95 1021.90 1021.78 1021.55 1021.35 1021.17 1021.15 1021.03 1020.97 1021.02 1021.02 1020.82 1020.68 1020.41 1020.25 1020.02 1019.81 1019.75 1019.51
1016.13 1016.28 1016.62 1016.68 1017.01 1017.09 1017.78 1018.67 1018.25 1017.67 1017.36 1017.31 1017.48 1017.79 1017.99 1018.36 1018.74 1019.15 1019.45 1019.69 1019.84 1020.18 1020.54 1020.73 1020.86 1021.07 1021.26 1021.36 1021.52 1021.75 1021.84 1021.87 1021.82 1021.51 1021.31 1021.00 1020.82 1020.72 1020.72 1020.74 1020.79 1020.71 1020.38 1020.47 1020.28 1020.04 1020.01 1019.88 1019.70
1016.72 1016.75 1016.89 1017.45 1018.06 1018.71 1018.60 1019.51 1019.08 1018.33 1017.97 1017.81 1017.93 1018.21 1018.53 1018.77 1019.02 1019.18 1019.44 1019.84 1020.11 1020.22 1020.37 1020.52 1020.72 1020.95 1021.12 1021.25 1021.53 1021.85 1022.06 1022.10 1021.86 1021.58 1021.22 1020.84 1020.56 1020.46 1020.42 1020.49 1020.58 1020.60 1020.47 1020.52 1020.24 1019.99 1019.99 1019.87 1019.93
1017.39 1016.96 1017.73 1018.68 1019.85 1020.25 1020.27 1020.31 1019.26 1018.74 1018.64 1018.24 1018.23 1018.53 1018.84 1018.93 1019.12 1019.52 1019.69 1019.89 1020.06 1020.29 1020.49 1020.52 1020.70 1020.89 1021.02 1021.22 1021.41 1021.66 1021.90 1021.86 1021.65 1021.44 1021.23 1020.95 1020.50 1020.25 1020.16 1020.23 1020.31 1020.37 1020.47 1020.29 1020.20 1020.07 1019.98 1019.89 1019.91
1017.65 1018.03 1019.04 1020.21 1021.57 1022.71 1022.11 1021.69 1019.86 1018.93 1017.97 1018.29 1018.48 1018.76 1018.98 1019.17 1019.43 1019.64 1019.85 1019.97 1020.21 1020.35 1020.50 1020.59 1020.72 1020.84 1020.91 1021.05 1021.18 1021.36 1021.65 1021.66 1021.61 1021.42 1021.31 1020.87 1020.53 1020.18 1019.93 1019.93 1020.07 1020.16 1020.24 1020.29 1020.09 1020.09 1020.01 1019.88 1019.83
1018.33 1019.51 1021.28 1022.76 1023.57 1023.70 1023.33 1022.47 1019.28 1018.15 1017.59 1017.52 1018.31 1018.93 1019.22 1019.40 1019.73 1020.08 1020.25 1020.42 1020.57 1020.64 1020.71 1020.78 1020.84 1020.89 1020.88 1021.00 1021.15 1021.25 1021.32 1021.37 1021.46 1021.25 1021.05 1020.84 1020.55 1020.22 1019.99 1019.83 1019.91 1019.97 1019.97 1019.85 1019.80 1019.84 1019.82 1019.89 1019.90
1019.58 1020.09 1021.33 1022.86 1024.02 1023.97 1023.29 1021.64 1018.94 1018.25 1017.68 1017.57 1018.08 1018.70 1019.30 1019.75 1020.04 1020.45 1020.59 1020.75 1020.91 1020.91 1020.99 1021.05 1021.10 1021.13 1021.13 1021.19 1021.23 1021.20 1021.21 1021.24 1021.11 1020.89 1020.70 1020.52 1020.32 1020.08 1019.73 1019.60 1019.54 1019.59 1019.61 1019.49 1019.41 1019.58 1019.60 1019.62 1019.76
1019.91 1020.07 1020.48 1021.84 1023.20 1023.41 1022.35 1020.78 1019.35 1018.75 1018.62 1018.58 1018.78 1019.04 1019.55 1020.00 1020.29 1020.65 1020.80 1021.00 1021.25 1021.34 1021.42 1021.46 1021.48 1021.53 1021.48 1021.50 1021.48 1021.45 1021.38 1021.25 1021.03 1020.70 1020.51 1020.36 1020.12 1019.80 1019.45 1019.34 1019.35 1019.21 1019.17 1019.15 1019.13 1019.28 1019.35 1019.43 1019.52
1020.04 1020.26 1020.66 1021.52 1022.83 1023.27 1022.15 1020.82 1019.09 1019.10 1018.86 1018.92 1019.13 1019.38 1019.85 1020.25 1020.63 1021.00 1021.13 1021.34 1021.47 1021.56 1021.68 1021.72 1021.75 1021.89 1021.91 1021.80 1021.70 1021.62 1021.48 1021.20 1020.94 1020.69 1020.43 1020.17 1019.86 1019.49 1019.35 1019.24 1019.13 1019.07 1018.93 1018.79 1018.93 1018.98 1019.06 1019.17 1019.18
1020.26 1020.10 1020.41 1021.06 1021.80 1022.11 1022.01 1020.15 1018.17 1018.06 1018.13 1018.57 1019.14 1019.57 1019.91 1020.37 1020.68 1021.14 1021.32 1021.51 1021.63 1021.76 1021.89 1022.03 1022.11 1022.14 1022.09 1021.94 1021.79 1021.58 1021.36 1021.09 1020.85 1020.68 1020.45 1020.18 1019.84 1019.42 1019.18 1018.93 1018.82 1018.71 1018.61 1018.57 1018.61 1018.72 1018.80 1018.85 1018.84
1020.17 1020.12 1020.21 1021.28 1022.01 1022.23 1021.75 1019.36 1017.85 1017.63 1017.94 1018.48 1019.11 1019.52 1019.88 1020.22 1020.77 1021.12 1021.29 1021.57 1021.85 1022.02 1022.13 1022.24 1022.32 1022.33 1022.20 1022.02 1021.87 1021.71 1021.46 1021.17 1020.85 1020.54 1020.32 1020.07 1019.72 1019.20 1019.00 1018.71 1018.53 1018.39 1018.26 1018.20 1018.22 1018.41 1018.42 1018.46 1018.56
Thickness
5724 5730 5732 5730 5708 5706 5709 5729 5756 5755 5751 5762 5769 5758 5737 5739 5731 5711 5739 5741 5736 5730 5728 5727 5727 5728 5727 5726 5726 5726 5726 5726 5726 5727 5727 5727 5726 5725 5725 5725 5724 5723 5723 5722 5721 5721 5720 5718 5717
5717 5723 5723 5711 5690 5689 5706 5740 5739 5751 5756 5761 5760 5754 5741 5726 5743 5738 5735 5738 5737 5732 5728 5727 5726 5727 5726 5726 5726 5726 5725 5726 5725 5725 5725 5725 5725 5724 5724 5724 5724 5723 5722 5721 5720 5719 5717 5716 5715
5708 5714 5701 5692 5684 5689 5710 5731 5736 5749 5760 5760 5749 5748 5739 5727 5741 5742 5742 5740 5737 5732 5729 5727 5726 5726 5726 5725 5726 5725 5725 5725 5725 5724 5724 5724 5723 5723 5723 5722 5721 5721 5720 5720 5719 5718 5717 5715 5714
5694 5697 5693 5677 5686 5715 5726 5724 5741 5745 5754 5755 5745 5728 5736 5740 5742 5745 5742 5739 5735 5730 5728 5727 5726 5726 5725 5724 5724 5724 5723 5723 5723 5722 5722 5721 5721 5720 5720 5719 5719 5718 5718 5718 5718 5717 5716 5714 5713
5684 5682 5667 5671 5691 5716 5725 5730 5742 5740 5743 5744 5745 5720 5719 5735 5743 5742 5739 5737 5734 5728 5727 5725 5724 5724 5723 5722 5722 5721 5721 5721 5721 5720 5720 5719 5719 5718 5717 5717 5716 5715 5715 5714 5713 5713 5713 5712 5712
5662 5670 5654 5657 5690 5718 5723 5732 5741 5738 5737 5735 5727 5720 5716 5735 5735 5735 5737 5733 5730 5728 5724 5724 5722 5721 5721 5720 5719 5718 5718 5719 5718 5717 5717 5717 5717 5717 5716 5715 5714 5712 5711 5711 5710 5710 5709 5709 5708
5653 5653 5655 5670 5692 5706 5713 5735 5732 5731 5728 5727 5734 5710 5714 5724 5728 5731 5731 5729 5726 5724 5723 5720 5719 5718 5717 5717 5716 5716 5716 5716 5715 5715 5715 5715 5715 5714 5712 5711 5710 5709 5708 5707 5706 5706 5705 5705 5704
5651 5653 5660 5671 5689 5696 5715 5729 5734 5731 5724 5736 5730 5705 5706 5717 5724 5723 5722 5721 5720 5720 5720 5717 5715 5715 5714 5714 5714 5714 5713 5713 5713 5713 5714 5713 5713 5712 5710 5709 5707 5706 5705 5704 5703 5703 5702 5702 5702
5654 5636 5641 5667 5684 5706 5713 5719 5723 5734 5724 5717 5718 5724 5724 5717 5719 5715 5711 5711 5712 5714 5715 5713 5714 5713 5712 5712 5712 5711 5711 5711 5711 5711 5711 5710 5710 5708 5708 5706 5705 5703 5702 5701 5699 5699 5698 5698 5698
5629 5625 5651 5684 5706 5707 5709 5720 5720 5716 5711 5700 5705 5713 5714 5714 5713 5705 5703 5701 5704 5706 5707 5710 5711 5710 5710 5710 5709 5709 5708 5708 5707 5707 5707 5706 5705 5704 5704 5703 5701 5700 5699 5697 5695 5694 5693 5692 5691
5629 5631 5669 5691 5703 5710 5705 5711 5722 5709 5701 5705 5701 5703 5705 5704 5704 5701 5698 5698 5699 5701 5702 5705 5706 5706 5706 5706 5705 5706 5705 5705 5704 5703 5702 5701 5700 5700 5699 5698 5698 5696 5695 5693 5691 5689 5688 5686 5685
5619 5650 5665 5682 5691 5698 5699 5708 5706 5707 5707 5717 5710 5706 5701 5699 5697 5697 5695 5694 5693 5695 5697 5700 5702 5702 5703 5702 5702 5702 5702 5701 5699 5698 5696 5697 5695 5695 5693 5693 5692 5691 5690 5688 5686 5684 5683 5681 5679
5614 5636 5660 5672 5681 5690 5696 5695 5694 5695 5708 5711 5704 5699 5695 5694 5693 5693 5694 5692 5692 5692 5694 5696 5698 5698 5699 5699 5697 5698 5697 5695 5695 5694 5692 5692 5690 5689 5687 5686 5685 5684 5682 5681 5679 5678 5676 5673 5671
5622 5630 5648 5662 5670 5683 5683 5685 5698 5690 5699 5699 5697 5692 5693 5693 5694 5690 5688 5688 5688 5688 5689 5692 5694 5694 5694 5694 5693 5693 5692 5691 5690 5689 5689 5687 5686 5683 5681 5679 5678 5676 5674 5673 5671 5669 5666 5664 5662
5614 5616 5637 5649 5661 5670 5682 5671 5672 5685 5691 5689 5690 5690 5690 5691 5694 5687 5685 5685 5685 5686 5687 5688 5690 5690 5690 5689 5689 5688 5688 5686 5685 5685 5684 5682 5680 5678 5675 5672 5670 5668 5666 5664 5661 5658 5656 5653 5651
5599 5609 5608 5637 5651 5659 5669 5648 5669 5680 5681 5679 5682 5683 5685 5688 5688 5686 5683 5683 5683 5682 5683 5684 5687 5686 5685 5684 5684 5685 5682 5681 5681 5680 5678 5676 5674 5671 5668 5665 5662 5659 5657 5654 5650 5647 5644 5641 5638
5587 5584 5600 5626 5647 5653 5657 5643 5662 5674 5675 5675 5675 5677 5680 5684 5684 5683 5681 5681 5680 5681 5680 5681 5681 5681 5680 5679 5680 5679 5678 5677 5675 5674 5672 5669 5666 5663 5660 5657 5654 5651 5648 5644 5639 5635 5630 5626 5625
5575 5588 5603 5611 5634 5646 5638 5640 5656 5667 5670 5672 5671 5673 5674 5676 5677 5677 5677 5678 5679 5678 5677 5678 5676 5676 5675 5675 5674 5674 5672 5670 5670 5667 5665 5662 5659 5656 5653 5649 5646 5642 5638 5633 5628 5623 5619 5614 5609
5597 5592 5599 5612 5632 5634 5633 5633 5645 5659 5667 5664 5665 5667 5669 5671 5677 5676 5675 5675 5675 5673 5672 5673 5672 5672 5670 5667 5666 5666 5664 5663 5662 5661 5659 5656 5652 5649 5645 5640 5635 5631 5626 5621 5616 5611 5606 5602 5600
5596 5582 5592 5608 5628 5632 5621 5628 5637 5649 5658 5662 5663 5663 5666 5669 5668 5669 5670 5671 5671 5670 5669 5668 5668 5667 5665 5664 5663 5661 5658 5657 5655 5653 5651 5649 5644 5640 5635 5631 5625 5621 5615 5611 5606 5602 5600 5595 5590
5571 5580 5591 5603 5617 5626 5618 5615 5628 5643 5652 5657 5660 5663 5664 5662 5663 5663 5662 5663 5664 5665 5664 5664 5663 5662 5661 5660 5657 5654 5651 5649 5647 5646 5643 5642 5638 5634 5629 5624 5617 5611 5606 5600 5597 5594 5588 5585 5582
5572 5585 5596 5600 5592 5580 5618 5584 5615 5629 5638 5648 5652 5653 5655 5656 5658 5659 5660 5658 5658 5660 5659 5659 5658 5657 5655 5653 5650 5645 5641 5638 5638 5637 5636 5634 5631 5626 5622 5617 5609 5602 5597 5592 5589 5586 5581 5578 5576
5571 5587 5591 5592 5571 5590 5601 5582 5614 5620 5627 5637 5642 5648 5647 5649 5651 5652 5653 5655 5655 5653 5653 5653 5652 5651 5649 5646 5643 5638 5635 5632 5631 5629 5627 5625 5623 5620 5615 5608 5603 5596 5590 5586 5582 5578 5575 5573 5571
5573 5577 5572 5571 5551 5546 5585 5581 5599 5617 5634 5636 5640 5642 5644 5644 5644 5646 5648 5649 5648 5647 5647 5647 5646 5644 5642 5639 5637 5633 5628 5625 5622 5620 5617 5616 5615 5613 5608 5601 5595 5590 5585 5580 5577 5573 5570 5570 5568
5568 5555 5497 5531 5523 5557 5519 5555 5609 5634 5641 5645 5638 5636 5638 5639 5637 5638 5639 5639 5640 5640 5640 5639 5638 5636 5635 5631 5628 5624 5621 5617 5614 5612 5610 5607 5604 5601 5598 5594 5588 5584 5580 5577 5573 5570 5568 5566 5564
5560 5557 5525 5536 5524 5553 5566 5577 5606 5630 5635 5639 5637 5635 5634 5632 5630 5630 5631 5629 5629 5631 5629 5628 5627 5626 5623 5620 5618 5615 5613 5608 5605 5604 5602 5599 5595 5592 5589 5586 5582 5578 5575 5573 5571 5567 5565 5564 5561
5557 5549 5573 5559 5557 5544 5547 5598 5616 5622 5627 5628 5628 5630 5627 5626 5624 5623 5622 5620 5619 5618 5618 5616 5615 5612 5610 5608 5605 5602 5600 5598 5596 5595 5593 5588 5585 5582 5580 5578 5576 5574 5572 5569 5566 5563 5561 5559 5558
5555 5562 5554 5531 5558 5570 5566 5603 5595 5606 5615 5621 5622 5621 5619 5616 5614 5612 5611 5610 5609 5608 5606 5604 5602 5599 5596 5594 5592 5591 5589 5588 5587 5585 5582 5579 5577 5576 5574 5572 5569 5567 5566 5564 5561 5558 5557 5555 5554
5544 5548 5571 5567 5569 5562 5560 5583 5606 5604 5618 5618 5615 5614 5611 5608 5605 5603 5601 5600 5598 5596 5593 5590 5588 5585 5584 5582 5582 5581 5580 5580 5578 5574 5571 5569 5568 5568 5567 5567 5566 5564 5562 5560 5556 5553 5552 5551 5550
5560 5567 5572 5541 5583 5530 5539 5574 5620 5621 5613 5612 5610 5608 5604 5601 5596 5594 5593 5590 5587 5583 5580 5578 5575 5574 5572 5572 5570 5569 5568 5567 5566 5564 5563 5562 5560 5561 5560 5561 5561 5560 5558 5556 5552 5548 5547 5546 5545